Culdrose, United Kingdom

10:08 AM BST on May 27, 2017 (GMT +0100)
Culdrose Navy

Weather History for EGDR - December, 2013

Change the Weather History Date:

Wednesday, December 25, 2013

  Actual Average Record
Temperature  
Mean Temperature 41 °F -  
Max Temperature 45 °F 46 °F 57 °F (2015)
Min Temperature 37 °F 39 °F 23 °F (2010)
Degree Days  
Heating Degree Days 24    
Moisture  
Dew Point 38 °F    
Average Humidity 83    
Maximum Humidity 93    
Minimum Humidity 70    
Precipitation  
Precipitation 0.02 in - - ()
Sea Level Pressure  
Sea Level Pressure 29.02 in    
Wind  
Wind Speed 14 mph ()    
Max Wind Speed 26 mph    
Max Gust Speed 45 mph    
Visibility 8.2 miles    
Events Rain , Hail    
Averages and records for this station are not official NWS values.
T = Trace of Precipitation, MM = Missing Value Source: Averaged Metar Reports

Daily Weather History Graph

Daily Weather History Graph

Search for Another Location

Airport or City:

Trip Planner

Search our weather history database for the weather conditions in past years. The results will help you decide how hot, cold, wet, or windy it might be!

Date:

Astronomy

Dec. 25, 2013 Rise Set
Actual Time 8:18 AM GMT 4:23 PM GMT
Civil Twilight 7:40 AM GMT 5:01 PM GMT
Nautical Twilight 6:58 AM GMT 5:43 PM GMT
Astronomical Twilight 6:19 AM GMT 6:23 PM GMT
Moon No Moon Rise 11:52 AM GMT (12/25)
Length of Visible Light 9h 21m
Length of Day
8h 04m
Waning Gibbous, 51% of the Moon is Illuminated
Dec 25
Waning Gibbous
Dec 25
Last Quarter
Jan 1
New
Jan 8
First Quarter
Jan 16
Full

Hourly Weather History & Observations

Time (GMT) Temp. Windchill Dew Point Humidity Pressure Visibility Wind Dir Wind Speed Gust Speed Precip Events Conditions
12:00 AM 40 °F - 38 °F 92% 28.95 in 5 mi West 21.9 mph - - Rain Heavy Rain Showers
12:50 AM 42.8 °F 34.5 °F 37.4 °F 81% 28.91 in 6.2 mi WSW 18.4 mph 32.2 mph N/A   Scattered Clouds
1:00 AM 42 °F - 38 °F 80% 28.94 in 12 mi WSW 18.4 mph - - Rain Light Rain Showers
1:50 AM 44.6 °F 35.3 °F 39.2 °F 81% 28.91 in 6.2 mi WSW 26.5 mph 44.9 mph N/A   Mostly Cloudy
2:00 AM 44 °F - 39 °F 76% 28.93 in 9 mi WSW 26.5 mph - -   Mostly Cloudy
2:50 AM 42.8 °F 35.4 °F 39.2 °F 87% 28.94 in 6.2 mi WSW 15.0 mph 28.8 mph N/A   Overcast
3:00 AM 42 °F - 38 °F 82% 28.95 in 11 mi WSW 15.0 mph - - Rain Light Rain Showers
3:50 AM 42.8 °F 33.8 °F 37.4 °F 81% 28.94 in 6.2 mi WSW 21.9 mph 35.7 mph N/A Rain Light Rain Showers
4:00 AM 43 °F - 37 °F 73% 28.95 in 12 mi WSW 21.9 mph - - Rain Light Rain Showers
4:50 AM 42.8 °F 33.5 °F 37.4 °F 81% 28.94 in 3.7 mi WSW 23.0 mph 44.9 mph N/A   Small Hail
5:00 AM 42 °F - 37 °F 75% 28.95 in 4 mi WSW 23.0 mph - - Hail Light Small Hail Showers
5:50 AM 44.6 °F 36.1 °F 37.4 °F 76% 28.94 in 6.2 mi WSW 21.9 mph 39.1 mph N/A   Partly Cloudy
6:00 AM 44 °F - 38 °F 72% 28.95 in 12 mi WSW 21.9 mph - - Hail Light Hail Showers
6:50 AM 42.8 °F 34.3 °F 37.4 °F 81% 28.94 in 6.2 mi WSW 19.6 mph - N/A   Scattered Clouds
7:00 AM 43 °F - 36 °F 70% 28.97 in 12 mi WSW 19.6 mph - -   Scattered Clouds
7:50 AM 42.8 °F 35.1 °F 37.4 °F 81% 28.97 in 6.2 mi West 16.1 mph 27.6 mph N/A   Mostly Cloudy
8:00 AM 43 °F - 37 °F 73% 28.98 in 11 mi West 16.1 mph - -   Partly Cloudy
8:50 AM 44.6 °F 38.1 °F 37.4 °F 76% 28.97 in 6.2 mi WSW 13.8 mph 25.3 mph N/A   Mostly Cloudy
9:00 AM 44 °F - 38 °F 73% 28.98 in 12 mi WSW 13.8 mph - -   Partly Cloudy
9:50 AM 42.8 °F 35.4 °F 39.2 °F 87% 28.97 in 6.2 mi West 15.0 mph - N/A   Partly Cloudy
10:00 AM 44 °F - 38 °F 74% 29.00 in 7 mi West 11.5 mph - -   Mostly Cloudy
10:50 AM 44.6 °F 39.2 °F 39.2 °F 81% 28.97 in 6.2 mi SW 10.4 mph - N/A   Mostly Cloudy
11:00 AM 45 °F - 40 °F 75% 29.00 in 11 mi SW 10.4 mph - -   Mostly Cloudy
11:50 AM 44.6 °F 38.1 °F 41.0 °F 87% 28.97 in 6.2 mi WSW 13.8 mph - N/A   Mostly Cloudy
12:00 PM 45 °F - 40 °F 77% 29.00 in 9 mi WSW 13.8 mph - - Rain Light Rain Showers
12:50 PM 44.6 °F 39.7 °F 39.2 °F 81% 28.97 in 6.2 mi SW 9.2 mph - N/A   Mostly Cloudy
1:00 PM 45 °F - 39 °F 73% 28.99 in 12 mi SW 9.2 mph - -   Mostly Cloudy
1:50 PM 44.6 °F 39.2 °F 39.2 °F 81% 28.97 in 6.2 mi WSW 10.4 mph - N/A   Mostly Cloudy
2:00 PM 45 °F - 40 °F 75% 29.00 in 11 mi WSW 10.4 mph - - Rain Light Rain Showers
2:50 PM 42.8 °F 38.6 °F 41.0 °F 93% 29.00 in 6.2 mi NNW 6.9 mph - N/A Rain Light Rain Showers
3:00 PM 43 °F - 40 °F 85% 29.01 in 7 mi NNW 6.9 mph - - Rain Light Rain Showers
3:50 PM 42.8 °F 39.3 °F 41.0 °F 93% 29.03 in 6.2 mi NW 5.8 mph - N/A   Mostly Cloudy
4:00 PM 44 °F - 41 °F 83% 29.04 in 10 mi NW 5.8 mph - - Rain Light Rain Showers
4:50 PM 41.0 °F 38.0 °F 37.4 °F 87% 29.03 in 6.2 mi NNW 4.6 mph - N/A   Scattered Clouds
5:00 PM 41 °F - 38 °F 85% 29.06 in 11 mi NNW 4.6 mph - -   Partly Cloudy
5:50 PM 41.0 °F 37.1 °F 37.4 °F 87% 29.06 in 6.2 mi NNW 5.8 mph - N/A   Haze
6:00 PM 40 °F - 37 °F 87% 29.08 in 11 mi NNW 5.8 mph - -   Haze
6:50 PM 42.8 °F 37.5 °F 39.2 °F 87% 29.09 in 6.2 mi West 9.2 mph - N/A Rain Light Rain Showers
7:00 PM 42 °F - 39 °F 84% 29.11 in 11 mi West 9.2 mph - - Rain Light Rain Showers
7:50 PM 41.0 °F 35.8 °F 39.2 °F 93% 29.12 in 6.2 mi NW 8.1 mph - N/A Rain Light Rain Showers
8:00 PM 41 °F - 39 °F 91% 29.15 in 9 mi NW 8.1 mph - - Rain Light Rain Showers
8:50 PM 39.2 °F 35.9 °F 37.4 °F 93% 29.15 in 6.2 mi NNW 4.6 mph - N/A   Partly Cloudy
9:00 PM 39 °F - 38 °F 93% 29.17 in 12 mi NNW 4.6 mph - - Rain Light Rain Showers
9:50 PM 37.4 °F 31.4 °F 35.6 °F 93% 29.18 in 6.2 mi NW 8.1 mph - N/A   Partly Cloudy
10:00 PM 38 °F - 36 °F 91% 29.20 in 12 mi NW 8.1 mph - -   Scattered Clouds
10:50 PM 37.4 °F 32.1 °F 35.6 °F 93% 29.21 in 6.2 mi NNW 6.9 mph - N/A   Scattered Clouds
11:00 PM 38 °F - 36 °F 91% 29.23 in 12 mi NNW 6.9 mph - -   Partly Cloudy
11:50 PM 41.0 °F 35.2 °F 37.4 °F 87% 29.24 in 6.2 mi WNW 9.2 mph - N/A   Haze